Regional Weather Roundup
Issued by NWS Northern Indiana

Home | Current Version | Previous Version | Graphics & Text | Print | Product List | Glossary On
Versions: 1 2 3 4 5 6 7 8 9 10 11 12 13 14 15 16 17 18 19 20 21 22 23 24 25 26 27 28 29 30 31 32 33 34 35 36 37 38 39 40 41 42 43 44 45 46 47 48 49 50
666
ASUS43 KIWX 260200
RWRIWX

KIWX WEATHER ROUNDUP
NATIONAL WEATHER SERVICE NORTHERN INDIANA
1000 PM EDT SAT MAR 25 2017

NOTE: "FAIR" INDICATES FEW OR NO CLOUDS BELOW 12,000 FEET WITH NO
SIGNIFICANT WEATHER AND/OR OBSTRUCTIONS TO VISIBILITY.

* THESE STATIONS ARE NOT UNDER NWS QUALITY CONTROL. THEY ALSO MAY NOT
  REPORT WEATHER SUCH AS PRECIPITATION OR FOG.

INZ001>027-260300-
NORTHERN INDIANA

CITY           SKY/WX    TMP DP  RH WIND       PRES   REMARKS
GARY*          CLOUDY    46  45  93 CALM      29.98S FOG
SOUTH BEND     CLOUDY    48  32  53 SE17G26   30.03R
GOSHEN         CLOUDY    47  42  83 E10G20    30.05R
MONTICELLO*    LGT RAIN  58  55  89 E8        29.97R
ANGOLA*        CLOUDY    43  41  93 E14       30.06S
FORT WAYNE     CLOUDY    46  41  82 E14       30.04R
PERU/GRISSOM   LGT RAIN  53  53 100 E9        30.00R

$$
INZ028>050-260300-
CENTRAL INDIANA

CITY           SKY/WX    TMP DP  RH WIND       PRES   REMARKS
LAFAYETTE      CLOUDY    61  55  81 SE12      29.96R
KOKOMO*        LGT RAIN  54  52  93 NE9       30.01R
MUNCIE*        CLOUDY    64  54  69 NW7       30.01R
INDIANAPOLIS   LGT RAIN  59  58  96 S8        29.99R

$$
MIZ043>046-050>051-056>058-064>065-071>073-077>080-260300-
SOUTHWEST LOWER MICHIGAN

CITY           SKY/WX    TMP DP  RH WIND       PRES   REMARKS
BATTLE CREEK   LGT RAIN  45  43  93 E7        30.10S
BENTON HARBOR  CLOUDY    49  45  86 E15       30.02R
COLDWATER*     CLOUDY    46  42  86 E9        30.08R
HILLSDALE*     CLOUDY    41  37  87 E17G23    30.09S
HOLLAND        RAIN      43  41  93 E14       30.06F FOG
GRAND RAPIDS   LGT RAIN  41  38  89 E16       30.11S
KALAMAZOO      HVY RAIN  46  42  86 E10       30.09F FOG
STURGIS*       CLOUDY    46  43  91 E10       30.05F
THREE RIVERS*  LGT RAIN  46  44  91 E10       30.06F

$$
OHZ001>008-015>018-024>025-260300-
NORTHWEST OHIO

CITY           SKY/WX    TMP DP  RH WIND       PRES   REMARKS
DEFIANCE       CLOUDY    39  36  89 E14G21    30.10S
FINDLAY        CLOUDY    43  36  76 NE12      30.09R
TOLEDO EXPRESS CLOUDY    38  35  89 E16G24    30.13S
TOLEDO METCALF CLOUDY    39  36  89 NE14      30.15S
LIMA           PTCLDY    50  45  83 NE15      30.06S

$$
AND FOR LAKE MICHIGAN COASTAL AND OPEN LAKE BUOY OBSERVATIONS

STATION/POSITION TEMP    WIND        PRES    VSBY  WAVE
                 AIR SEA DIR/SP/G                  HT/PER
                 (F)     (DEG/KT/KT) (MB)    (MI)  (FT/S)
CALUMET HARBOR    42     330/  5/  7 1014.7
MICHIGAN CITY     53     100/ 12/ 17   N/A
BURNS HARBOR      56     110/ 14/ 19 1015.6

$$
&&




USA.gov is the U.S. government's official web portal to all federal, state and local government web resources and services.